Showing default

GLOBALSTAR M023, 25621

Orbit data source: Space-Track

GLOBALSTAR M023, 25621 is a payload satellite owned by Globalstar (US) in LEO that was launched on Tue, 09 Feb 1999 UTC via a SOYUZ-U-PVB launch vehicle from the Tyuratam Missile And Space Complex (TTMTR). Payload-class satellites include a variety of spacecraft equipped with specific instruments for various scientific and technological missions. These include communications satellites like Starlink; space stations such as the ISS; scientific satellites like the Hubble; Earth observation satellites from companies like Planet Labs, Umbra, and HawkEye 360; GPS; miniature CubeSats for education and research; and military/defense satellites.

Loading next visibility...
Identifier
25621, 1999-004A
Orbit
LEO
Last TLE update
4 hours ago
Origin
Manufacturer
SS/Loral
Mission
Non-operational Commercial Communications
Bus & Motor
LS-400, LS-400 AOCS
Mass
450 kg wet, 380 kg dry
Launch date (UTC)
1999-02-09 (26 years ago)
Launch vehicle
SOYUZ-U-PVB
Launch site
Tyuratam Missile And Space Complex (TTMTR)
Object type
Payload
Rocket body
Debris
Shape & HBR
Box + 2 Pan, 12 m
Radar Cross Section
5.587 m², Large (>1 m²)

Expand to show TLE details & history

TLE from 4 hours ago
0 GLOBALSTAR M023
1 25621U 99004A   25182.23583973 -.00000164  00000-0 -33492-3 0  9993
2 25621  52.0129  10.6625 0010159 151.9694  21.8992 12.62506794217595
Epoch: 2025-07-01T05:39Z
TLE epoch observation values (Epoch: 2025-07-01T05:39:36.552Z)
Latitude
4.75248°
Longitude
-177.47804°
Altitude
1,405.466 km
Speed
7.162 km/s
True Right ascension
12h 27m 50s
True Declination
4° 43' 35"
Sunlit
Object was in daylight at epoch
Visualization orbit readout
Latitude
-42.13319°
Longitude
-39.00692°
Altitude
1,433.448 km
Speed
7.142 km/s
Apparent Right ascension
21h 15m 32s
Apparent Declination
-84° 24' 52"
Sunlit
Object is in full shadow
Visualization observer readout
Local Sidereal Time
21:46:33
Azimuth
180.912° SSW
Elevation
-34.378°
Doppler factor
1
Orbital elements
Apogee altitude
1,420.92 km
Perigee altitude
1,405.09 km
Semi-major axis
7,791.142 km
Eccentricity
0.00102
Inclination
52.0129°
RAAN
10.6625°
Arg. of periapsis
151.9694°
True anomaly
Unknown
Mean anomaly
21.8992°
Eccentric anomaly
Unknown
Mean motion
3.15603 °/min
Orbital period
114.07 mins
BSTAR
-0.00033492
Loading maneuver chart data...
Loading SW <> Apogee altitude chart data...
Loading historical data...
Loading historical data...
Loading historical data...
Loading historical data...
Loading historical data...
Loading historical data...
Loading historical data...
Other satellites on launch #4 in the year 1999 (1999-02-09 UTC)

GLOBALSTAR M023 Visibility forecast

Observer location: undefined°, undefined°

Span
Click to sort rows by Start time (UTC) header in descending order
Start Az.
Max El. time (UTC)
Max El. Az.
Max El.
End time (UTC)
End Az.
15 mins2025-07-01 14:21:09.821Z197.392° SSW2025-07-01 14:29:09.821Z121.015° SE35.415°2025-07-01 14:36:09.821Z62.293° ENE
15 mins2025-07-01 16:21:09.821Z250.926° W2025-07-01 16:28:09.821Z326.959° NNW41.954°2025-07-01 16:36:09.821Z49.916° ENE
14 mins2025-07-01 18:23:09.821Z294.562° NW2025-07-01 18:29:09.821Z350.575° N31.409°2025-07-01 18:37:09.821Z59.892° ENE
15 mins2025-07-01 20:24:09.821Z311.905° NW2025-07-01 20:31:09.821Z23.36° NE36.033°2025-07-01 20:39:09.821Z92.401° ESE
15 mins2025-07-01 22:24:09.821Z304.893° NW2025-07-01 22:31:09.821Z231.717° WSW44.205°2025-07-01 22:39:09.821Z138.846° SSE
9 mins2025-07-02 00:26:09.821Z270.092° WNW2025-07-02 00:30:09.821Z237.153° WSW18.884°2025-07-02 00:35:09.821Z199.49° SSW
|